Location: Melbourne
(37.8666°S, 145.1333°E)
Time: 07:44:04
(UTC+11:00)

Amateur Radio Satellites - All Passes

Search period start: 01 November 2014 07:14
Search period end: 02 November 2014 07:14
Location: Melbourne, 37.8666°S, 145.1333°E

Satellite Date Start Highest point End Downlink Frequencies (MHz)
Time Altitude Azimuth
Hamsat 01 Nov 07:14:46 07:18:18 24° 275° (W) 07:21:53 145.90 MHz
RS-15 01 Nov 07:30:07 07:36:42 17° 84° (E) 07:43:18 29.354 - 29.394 USB, Beacon 29.352 USB
SO-50 01 Nov 07:40:06 07:43:28 20° 133° (SE) 07:46:46 436.795 FM
SO-67 01 Nov 08:02:04 08:05:24 43° 279° (W) 08:08:47 435.3500 MHz FM
OPAL 01 Nov 08:13:50 08:17:05 17° 241° (WSW) 08:20:19 ?
HO-68 01 Nov 08:19:25 08:25:24 30° 118° (ESE) 08:31:25 435.675 MHz FM
STRAND 1 01 Nov 08:30:12 08:35:21 70° 254° (WSW) 08:40:28 ?
KITSAT 1 01 Nov 08:43:34 08:51:45 80° 119° (ESE) 08:59:52 435.175 FM
SO-50 01 Nov 09:19:57 09:24:13 43° 295° (WNW) 09:28:23 436.795 FM
UKube-1 01 Nov 09:21:51 09:25:14 22° 112° (ESE) 09:28:38 145.840 MHz, 145.915 MHz
ZACube-1 01 Nov 09:33:21 09:34:27 11° 117° (ESE) 09:35:34 437.345 MHz
RS-15 01 Nov 09:34:58 09:47:02 77° 64° (ENE) 09:59:20 29.354 - 29.394 USB, Beacon 29.352 USB
Oscar 11 01 Nov 09:55:40 09:59:52 48° 107° (ESE) 10:04:08 145.825 FM, Beacon 2401.500 USB
UOSAT-12 01 Nov 10:02:28 10:06:44 45° 125° (SE) 10:11:00 437.025 FM, 437.400 FM
HO-68 01 Nov 10:05:47 10:12:43 51° 281° (W) 10:19:44 435.675 MHz FM
FUNcube-1 01 Nov 10:13:10 10:16:53 30° 110° (ESE) 10:20:43 145.950 - 145.970 MHz USB
MaSat-1 01 Nov 10:28:05 10:30:52 64° 68° (ENE) 10:34:03 437.345 MHz
KITSAT 1 01 Nov 10:40:47 10:46:12 20° 282° (WNW) 10:51:36 435.175 FM
UKube-1 01 Nov 10:57:22 11:01:13 30° 277° (W) 11:05:07 145.840 MHz, 145.915 MHz
ZACube-1 01 Nov 11:06:00 11:10:12 65° 281° (W) 11:14:35 437.345 MHz
Oscar 11 01 Nov 11:34:05 11:36:18 14° 272° (W) 11:38:32 145.825 FM, Beacon 2401.500 USB
UOSAT-12 01 Nov 11:43:37 11:46:29 17° 290° (WNW) 11:49:22 437.025 FM, 437.400 FM
RS-15 01 Nov 11:49:51 12:00:46 36° 220° (SW) 12:11:48 29.354 - 29.394 USB, Beacon 29.352 USB
FUNcube-1 01 Nov 11:50:03 11:53:16 21° 274° (W) 11:56:34 145.950 - 145.970 MHz USB
Oscar 16 01 Nov 14:10:32 14:15:09 30° 84° (E) 14:19:41 437.025 USB, Beacon 2401.1428
RS-15 01 Nov 14:11:02 14:18:38 18° 186° (S) 14:26:08 29.354 - 29.394 USB, Beacon 29.352 USB
Sapphire 01 Nov 14:21:20 14:26:28 46° 69° (ENE) 14:31:39 437.095 MHz 1200 baud AX-25 AFSK
JAS-1B 01 Nov 14:29:58 14:37:49 49° 83° (E) 14:44:18 435.800 - 435.900 CW/SSB
PCSat 01 Nov 14:42:37 14:48:01 79° 65° (ENE) 14:53:29 145.825 MHz
AO-Echo 01 Nov 14:42:55 14:47:03 29° 83° (E) 14:51:11 ?
Uribyol 2 01 Nov 14:44:21 14:48:42 26° 85° (E) 14:53:01 436.500 FM
ITAMSAT 1 01 Nov 14:52:18 14:56:50 29° 84° (E) 15:01:19 435.822 SSB
Oscar 19 01 Nov 15:02:08 15:07:26 87° 256° (WSW) 15:12:39 437.125 CW, 437.150 USB
AO-27 01 Nov 15:39:31 15:44:49 85° 76° (ENE) 15:50:02 436.795 MHz FM
AO-40 01 Nov 15:44:15 22:40:22 52° 3° (N) 04:54:58 Beacon 2401.320
PANSAT 01 Nov 15:49:10 15:50:28 11° 17° (NNE) 15:51:47 not established
Oscar 16 01 Nov 15:49:50 15:54:24 31° 248° (WSW) 15:58:56 437.025 USB, Beacon 2401.1428
Gurwin Techsat 1B 01 Nov 15:57:25 16:02:47 67° 78° (ENE) 16:08:05 435.225 FM
TMSAT-1 01 Nov 16:03:32 16:08:49 56° 80° (E) 16:14:02 436.925 FM
Sapphire 01 Nov 16:05:40 16:10:05 25° 231° (SW) 16:14:32 437.095 MHz 1200 baud AX-25 AFSK
AO-7 01 Nov 16:08:48 16:13:55 17° 89° (E) 16:19:00 29.400 - 29.500 MHz
OPAL 01 Nov 16:12:21 16:13:41 11° 123° (ESE) 16:15:02 ?
JAS-1B 01 Nov 16:20:57 16:27:55 31° 241° (WSW) 16:33:55 435.800 - 435.900 CW/SSB
AO-Echo 01 Nov 16:21:46 16:25:43 26° 248° (WSW) 16:29:40 ?
Uribyol 2 01 Nov 16:23:26 16:28:11 36° 249° (WSW) 16:32:55 436.500 FM
RS-15 01 Nov 16:27:36 16:37:23 27° 150° (SSE) 16:46:47 29.354 - 29.394 USB, Beacon 29.352 USB
PCSat 01 Nov 16:28:45 16:32:04 16° 226° (SW) 16:35:25 145.825 MHz
ITAMSAT 1 01 Nov 16:31:39 16:36:16 32° 248° (WSW) 16:40:51 435.822 SSB
Uosat F 01 Nov 16:35:54 16:38:27 14° 88° (E) 16:40:59 435.120 FM
Oscar 19 01 Nov 16:45:00 16:45:55 10° 239° (WSW) 16:46:49 437.125 CW, 437.150 USB
AO-27 01 Nov 17:21:47 17:23:32 12° 240° (WSW) 17:25:18 436.795 MHz FM
PANSAT 01 Nov 17:27:07 17:29:58 20° 5° (N) 17:32:49 not established
Gurwin Techsat 1B 01 Nov 17:39:06 17:42:08 16° 242° (WSW) 17:45:10 435.225 FM
TMSAT-1 01 Nov 17:44:42 17:48:14 18° 244° (WSW) 17:51:45 436.925 FM
OPAL 01 Nov 17:46:40 17:51:43 89° 106° (ESE) 17:56:56 ?
Saudisat 1A 01 Nov 17:52:35 17:56:54 54° 63° (ENE) 18:01:14 436.775 MHz
AO-7 01 Nov 17:59:09 18:07:36 87° 251° (WSW) 18:15:55 29.400 - 29.500 MHz
STRAND 1 01 Nov 18:07:37 18:10:44 17° 117° (ESE) 18:13:52 ?
JAS-2 01 Nov 18:09:10 18:13:45 30° 83° (E) 18:18:27 435.800 - 435.900 CW/SSB, 435.910 FM
Uosat F 01 Nov 18:12:36 18:17:36 61° 253° (WSW) 18:22:34 435.120 FM
RS-15 01 Nov 18:40:10 18:52:17 77° 122° (ESE) 19:03:43 29.354 - 29.394 USB, Beacon 29.352 USB
Hamsat 01 Nov 19:01:16 19:05:40 70° 79° (E) 19:09:56 145.90 MHz
PANSAT 01 Nov 19:06:51 19:09:33 18° 352° (N) 19:12:14 not established
SO-67 01 Nov 19:28:14 19:30:02 13° 87° (E) 19:31:49 435.3500 MHz FM
Saudisat 1A 01 Nov 19:33:47 19:36:46 17° 226° (SW) 19:39:46 436.775 MHz
STRAND 1 01 Nov 19:44:22 19:49:24 58° 281° (W) 19:54:30 ?
AO-7 01 Nov 19:53:49 19:59:11 19° 233° (SW) 20:04:32 29.400 - 29.500 MHz
JAS-2 01 Nov 19:54:21 19:58:49 29° 248° (WSW) 20:03:23 435.800 - 435.900 CW/SSB, 435.910 FM
MaSat-1 01 Nov 20:12:14 20:16:34 86° 115° (ESE) 20:20:58 437.345 MHz
Hamsat 01 Nov 20:40:32 20:40:56 10° 243° (WSW) 20:41:21 145.90 MHz
RS-15 01 Nov 20:54:14 21:03:23 27° 282° (WNW) 21:12:15 29.354 - 29.394 USB, Beacon 29.352 USB
ISS 01 Nov 20:58:22 20:59:28 11° 53° (NE) 21:00:34 145.800 FM
SO-67 01 Nov 20:59:58 21:03:03 29° 253° (WSW) 21:06:05 435.3500 MHz FM
KITSAT 1 01 Nov 21:21:06 21:23:16 11° 82° (E) 21:25:26 435.175 FM
HO-68 01 Nov 21:35:34 21:42:02 35° 83° (E) 21:48:25 435.675 MHz FM
Oscar 11 01 Nov 21:48:37 21:48:48 10° 90° (E) 21:48:59 145.825 FM, Beacon 2401.500 USB
ISS 01 Nov 22:32:22 22:35:44 68° 218° (SW) 22:39:07 145.800 FM
UKube-1 01 Nov 22:46:43 22:51:01 50° 80° (E) 22:55:15 145.840 MHz, 145.915 MHz
ZACube-1 01 Nov 22:57:04 23:01:09 29° 84° (E) 23:05:11 437.345 MHz
KITSAT 1 01 Nov 23:09:12 23:17:13 72° 65° (ENE) 23:25:19 435.175 FM
Sapphire 01 Nov 23:11:18 23:15:53 27° 128° (SE) 23:20:26 437.095 MHz 1200 baud AX-25 AFSK
Oscar 11 01 Nov 23:20:59 23:25:23 64° 255° (WSW) 23:29:43 145.825 FM, Beacon 2401.500 USB
HO-68 01 Nov 23:23:04 23:29:44 43° 246° (WSW) 23:36:22 435.675 MHz FM
SO-50 01 Nov 23:32:14 23:37:04 89° 54° (NE) 23:41:50 436.795 FM
PCSat 01 Nov 23:32:31 23:37:42 43° 123° (ESE) 23:42:49 145.825 MHz
FUNcube-1 01 Nov 23:39:17 23:43:58 85° 78° (ENE) 23:48:38 145.950 - 145.970 MHz USB
ISS 02 Nov 00:11:04 00:12:57 14° 200° (SSW) 00:14:50 145.800 FM
UOSAT-12 02 Nov 00:13:08 00:16:22 20° 69° (ENE) 00:19:35 437.025 FM, 437.400 FM
UKube-1 02 Nov 00:24:24 00:26:44 14° 244° (WSW) 00:29:03 145.840 MHz, 145.915 MHz
ZACube-1 02 Nov 00:33:32 00:37:23 26° 249° (WSW) 00:41:14 437.345 MHz
Oscar 19 02 Nov 00:41:07 00:43:38 14° 119° (ESE) 00:46:09 437.125 CW, 437.150 USB
Sapphire 02 Nov 00:54:21 00:59:26 41° 291° (WNW) 01:04:28 437.095 MHz 1200 baud AX-25 AFSK
KITSAT 1 02 Nov 01:06:37 01:13:20 28° 225° (SW) 01:20:07 435.175 FM
JAS-1B 02 Nov 01:09:04 01:18:03 44° 115° (ESE) 01:27:06 435.800 - 435.900 CW/SSB
SO-50 02 Nov 01:16:00 01:18:15 13° 222° (SW) 01:20:30 436.795 FM
PCSat 02 Nov 01:16:31 01:20:49 24° 287° (WNW) 01:25:05 145.825 MHz
AO-27 02 Nov 01:19:57 01:22:16 13° 119° (ESE) 01:24:34 436.795 MHz FM
Oscar 16 02 Nov 01:25:40 01:30:24 37° 110° (ESE) 01:35:11 437.025 USB, Beacon 2401.1428
Gurwin Techsat 1B 02 Nov 01:41:41 01:42:53 11° 121° (ESE) 01:44:05 435.225 FM
UOSAT-12 02 Nov 01:52:02 01:56:13 39° 234° (SW) 02:00:23 437.025 FM, 437.400 FM
AO-Echo 02 Nov 01:54:01 01:58:30 33° 110° (ESE) 02:02:54 ?
Uribyol 2 02 Nov 02:00:28 02:05:04 33° 111° (ESE) 02:09:42 436.500 FM
ITAMSAT 1 02 Nov 02:08:32 02:13:16 37° 111° (ESE) 02:18:02 435.822 SSB
Oscar 19 02 Nov 02:17:07 02:22:17 73° 282° (WNW) 02:27:34 437.125 CW, 437.150 USB
Saudisat 1A 02 Nov 02:21:12 02:25:00 27° 130° (SE) 02:28:45 436.775 MHz
AO-27 02 Nov 02:55:52 03:01:04 77° 283° (WNW) 03:06:20 436.795 MHz FM
JAS-1B 02 Nov 02:58:54 03:08:11 51° 278° (W) 03:17:46 435.800 - 435.900 CW/SSB
Oscar 16 02 Nov 03:05:36 03:09:47 25° 275° (W) 03:14:02 437.025 USB, Beacon 2401.1428
AO-7 02 Nov 03:05:57 03:12:10 24° 125° (SE) 03:18:24 29.400 - 29.500 MHz
Gurwin Techsat 1B 02 Nov 03:16:39 03:21:59 86° 104° (ESE) 03:27:23 435.225 FM
TMSAT-1 02 Nov 03:22:24 03:27:42 73° 105° (ESE) 03:33:03 436.925 FM
ISS 02 Nov 03:26:54 03:28:51 14° 159° (SSE) 03:30:47 145.800 FM
AO-Echo 02 Nov 03:33:07 03:37:15 25° 276° (W) 03:41:20 ?
Uribyol 2 02 Nov 03:40:08 03:44:30 28° 276° (W) 03:48:56 436.500 FM
Uosat F 02 Nov 03:47:24 03:50:39 18° 116° (ESE) 03:53:55 435.120 FM
ITAMSAT 1 02 Nov 03:48:37 03:52:48 25° 275° (W) 03:57:02 435.822 SSB
Saudisat 1A 02 Nov 04:00:40 04:04:31 30° 293° (WNW) 04:08:20 436.775 MHz
JAS-2 02 Nov 04:22:29 04:25:05 13° 119° (ESE) 04:27:36 435.800 - 435.900 CW/SSB, 435.910 FM
AO-7 02 Nov 04:55:40 05:04:03 78° 286° (WNW) 05:12:32 29.400 - 29.500 MHz
ISS 02 Nov 05:02:39 05:06:03 73° 141° (SE) 05:09:23 145.800 FM
TMSAT-1 02 Nov 05:05:57 05:08:07 12° 270° (W) 05:10:17 436.925 FM
Uosat F 02 Nov 05:24:04 05:28:58 53° 281° (W) 05:33:56 435.120 FM
Hamsat 02 Nov 05:52:31 05:56:35 39° 108° (ESE) 06:00:44 145.90 MHz
OPAL 02 Nov 05:58:53 06:03:23 28° 82° (E) 06:07:50 ?
JAS-2 02 Nov 06:02:44 06:09:30 87° 104° (ESE) 06:15:31 435.800 - 435.900 CW/SSB, 435.910 FM
ISS 02 Nov 06:41:41 06:42:16 10° 307° (NW) 06:42:51 145.800 FM
AO-7 02 Nov 06:54:33 06:57:59 13° 269° (W) 07:01:27 29.400 - 29.500 MHz
RS-15 02 Nov 07:01:10 07:01:24 10° 87° (E) 07:01:38 29.354 - 29.394 USB, Beacon 29.352 USB
